This is the latest recevied weather packets stored in our database for station/object HP1COO-13. If no packets are shown the sender has not sent any weather packets the latest 10 day(s).
| Time | Temp. | Humidity | Pressure | Rain* | Wind** | Luminosity | Snow |
|---|---|---|---|---|---|---|---|
| 1788545701 | 27.78° C | 90% | 1007.8 hPa | 3.05 mm | - | - | - |
| 1788545068 | 30° C | 84% | 1007.8 hPa | 0.25 mm | - | - | - |
| 1788544435 | 32.22° C | 75% | 1007.7 hPa | 0 mm | - | - | - |
| 1788543802 | 33.33° C | 71% | 1007.5 hPa | 0 mm | - | - | - |
| 1788543169 | 33.33° C | 71% | 1007.9 hPa | 0 mm | - | - | - |
| 1788542536 | 33.33° C | 70% | 1007.8 hPa | 0 mm | - | - | - |
| 1788541903 | 33.33° C | 69% | 1008.1 hPa | 0 mm | - | - | - |
| 1788541270 | 33.89° C | 68% | 1008.5 hPa | 0 mm | - | - | - |
| 1788540637 | 33.33° C | 69% | 1008.7 hPa | 0 mm | - | - | - |
| 1788540004 | 33.33° C | 70% | 1008.8 hPa | 0 mm | - | - | - |
| 1788539371 | 32.78° C | 71% | 1008.9 hPa | 0 mm | - | - | - |
| 1788538738 | 32.78° C | 72% | 1008.8 hPa | 0 mm | - | - | - |
| 1788538105 | 32.78° C | 72% | 1008.9 hPa | 0 mm | - | - | - |
| 1788537472 | 32.22° C | 73% | 1009.2 hPa | 0 mm | - | - | - |
| 1788536839 | 31.67° C | 75% | 1009.4 hPa | 0 mm | - | - | - |
| 1788536206 | 31.67° C | 76% | 1009.5 hPa | 0 mm | - | - | - |
| 1788535573 | 31.67° C | 77% | 1009.3 hPa | 0 mm | - | - | - |
| 1788534940 | 31.11° C | 77% | 1009.3 hPa | 0 mm | - | - | - |
| 1788534307 | 31.67° C | 77% | 1009.4 hPa | 0 mm | - | - | - |
| 1788533675 | 31.11° C | 78% | 1009.4 hPa | 0 mm | - | - | - |
| 1788533041 | 31.11° C | 78% | 1009.8 hPa | 0 mm | - | - | - |
| 1788532408 | 30.56° C | 79% | 1009.4 hPa | 0 mm | - | - | - |
| 1788531775 | 29.44° C | 82% | 1009.7 hPa | 0 mm | - | - | - |
| 1788531142 | 29.44° C | 82% | 1009.4 hPa | 0 mm | - | - | - |
| 1788530509 | 30° C | 81% | 1009.5 hPa | 0 mm | - | - | - |
* Rain latest hour (hover to see other rain measurements)
** Current wind speed in m/s (hover to see current wind gust speed)